THORAD AGENA D DEB, 42494

Orbit data source: Space-Track

THORAD AGENA D DEB, 42494 is space debris in LEO originally from a launch on Wed, 08 Apr 1970 UTC launched from the Air Force Western Test Range (AFWTR). Debris objects in space refer to the collection of defunct objects orbiting the Earth. Examples of debris include non-operational satellites, rocket bodies, and fragments generated from explosions, collisions, or faulty payload assembly.

Loading next visibility...
THORAD AGENA D DEB details
Identifier
42494, 1970-025QY
Orbit
LEO
Last TLE update2 weeks ago
Origin
Flag of USNASA LeRC (US)
ManufacturerUnknown
MissionSpacecraft
Bus & MotorUnknown
MassUnknown
Launch date (UTC)
1970-04-08 (55 years ago)
Launch vehicleUnknown
Launch site
Air Force Western Test Range (AFWTR)
Object type
Payload
Rocket body
Debris
Shape & HBRUnknown
Radar Cross SectionSmall (<0.1 m²)

Expand to show TLE details & history

TLE from 2 weeks ago
0 THORAD AGENA D DEB
1 42494U 70025QY  24336.92590363  .00001024  00000-0  13919-2 0  9994
2 42494  99.7420  50.7238 0100102 145.5715 215.1963 13.59680843535011
Epoch: 2024-12-01T22:13Z
Definitive object data (Epoch: 2024-12-01T22:13:18.073Z)
Latitude-0.00008°
Longitude6.1414°
Altitude1,100.561 km
Speed7.272 km/s
True Right ascension03h 22m 53s
True Declination0° 00' 00"
Sunlit
Object was in full shadow at TLE epoch
Visualization TLE readout
Latitude72.34453°
Longitude-129.97422°
Altitude976.443 km
Speed7.406 km/s
Apparent Right ascension19h 59m 02s
Apparent Declination23° 06' 46"
Sunlit
Object is in daylight
Visualization observer readout
Local Sidereal Time08:43:47
Azimuth11.464° NNE
Elevation-26.112°
Doppler factor1
Orbital elements
Apogee altitude1,108.341 km
Perigee altitude959.944 km
Semi-major axis7,412.279 km
Eccentricity0.0100102
Inclination99.742°
RAAN50.7238°
Arg. of periapsis145.5715°
True anomaly214.54185°
Mean anomaly215.1963°
Eccentric anomaly214.86841°
Mean motion3.40107 °/min
BSTAR0.0013919
Orbital period105.85 mins
Loading maneuver chart data...

THORAD AGENA D DEB Visibility forecast

Observer location: undefined°, undefined

Span
Click to sort rows by Start time (UTC) header in descending order
Start Az.
Max El. time (UTC)
Max El. Az.
Max El.
End time (UTC)
End Az.
10 mins2024-12-13 17:22:53.925Z31.24° NE2024-12-13 17:27:53.925Z91.421° ESE32.761°2024-12-13 17:32:53.925Z163.62° S
8 mins2024-12-13 19:08:53.925Z344.414° N2024-12-13 19:12:53.925Z287.761° WNW26.642°2024-12-13 19:16:53.925Z240.861° WSW
7 mins2024-12-14 03:33:53.925Z91.897° ESE2024-12-14 03:36:53.925Z58.055° ENE18.491°2024-12-14 03:40:53.925Z16.924° NNE
10 mins2024-12-14 05:15:53.925Z175.332° S2024-12-14 05:20:53.925Z277.751° WNW43.042°2024-12-14 05:25:53.925Z339.14° N
|